This is the latest recevied weather packets stored in our database for station/object KC3QLX. If no packets are shown the sender has not sent any weather packets the latest 10 day(s).
| Time | Temp. | Humidity | Pressure | Rain* | Wind** | Luminosity | Snow |
|---|---|---|---|---|---|---|---|
| 1778158635 | 10° C | 67% | 1012.3 hPa | 0 mm | - | 150 W/m² | - |
| 1778158332 | 10° C | 74% | 1011.9 hPa | 0 mm | - | 96 W/m² | - |
| 1778158028 | 9.44° C | 77% | 1012.3 hPa | 0 mm | - | 67 W/m² | - |
| 1778157725 | 9.44° C | 75% | 1012.1 hPa | 0 mm | - | 62 W/m² | - |
| 1778157424 | 9.44° C | 79% | 1012.4 hPa | 0 mm | - | 68 W/m² | - |
| 1778157120 | 9.44° C | 78% | 1012.4 hPa | 0 mm | - | 52 W/m² | - |
| 1778156815 | 9.44° C | 78% | 1012.2 hPa | 0 mm | - | 53 W/m² | - |
| 1778156512 | 9.44° C | 81% | 1012.2 hPa | 0 mm | - | 189 W/m² | - |
| 1778156208 | 8.89° C | 78% | 1012.2 hPa | 0 mm | - | 81 W/m² | - |
| 1778155904 | 8.89° C | 81% | 1012 hPa | 0 mm | - | 88 W/m² | - |
| 1778155600 | 8.89° C | 81% | 1012 hPa | 0 mm | - | 104 W/m² | - |
| 1778155297 | 8.33° C | 86% | 1011.9 hPa | 0 mm | - | 157 W/m² | - |
| 1778154993 | 7.78° C | 89% | 1012 hPa | 0 mm | - | 111 W/m² | - |
| 1778154689 | 7.78° C | 92% | 1012.2 hPa | 0 mm | - | 106 W/m² | - |
| 1778154385 | 7.78° C | 87% | 1012.1 hPa | 0 mm | - | 42 W/m² | - |
| 1778154082 | 7.78° C | 89% | 1012.1 hPa | 0 mm | - | 41 W/m² | - |
| 1778153780 | 7.78° C | 89% | 1012.1 hPa | 0 mm | - | 40 W/m² | - |
| 1778153476 | 7.78° C | 90% | 1012.2 hPa | 0 mm | - | 39 W/m² | - |
| 1778153174 | 7.22° C | 89% | 1011.9 hPa | 0 mm | - | 37 W/m² | - |
| 1778152871 | 7.22° C | 93% | 1011.9 hPa | 0 mm | - | 36 W/m² | - |
| 1778152568 | 7.22° C | 92% | 1011.7 hPa | 0 mm | - | 35 W/m² | - |
| 1778152265 | 7.22° C | 93% | 1011.9 hPa | 0 mm | - | 32 W/m² | - |
| 1778151961 | 7.22° C | 93% | 1011.8 hPa | 0 mm | - | 32 W/m² | - |
| 1778151658 | 7.22° C | 92% | 1011.6 hPa | 0 mm | - | 30 W/m² | - |
| 1778151354 | 7.22° C | 95% | 1011.7 hPa | 0 mm | - | 29 W/m² | - |
* Rain latest hour (hover to see other rain measurements)
** Current wind speed in m/s (hover to see current wind gust speed)